Year,Month,Day,Hour,Minute,Value (Times are PST for insolation in W/m^2)
2013,10,02,00,00,0.00
2013,10,02,00,01,0.00
2013,10,02,00,02,0.00
2013,10,02,00,03,0.00
2013,10,02,00,04,0.00
2013,10,02,00,05,0.00
2013,10,02,00,06,0.00
2013,10,02,00,07,0.00
2013,10,02,00,08,0.00
2013,10,02,00,09,0.00
2013,10,02,00,10,0.00
2013,10,02,00,11,0.00
2013,10,02,00,12,0.00
2013,10,02,00,13,0.00
2013,10,02,00,14,0.00
2013,10,02,00,15,0.00
2013,10,02,00,16,0.00
2013,10,02,00,17,0.00
2013,10,02,00,18,0.00
2013,10,02,00,19,0.00
2013,10,02,00,20,0.00
2013,10,02,00,21,0.00
2013,10,02,00,22,0.00
2013,10,02,00,23,0.00
2013,10,02,00,24,0.00
2013,10,02,00,25,0.00
2013,10,02,00,26,0.00
2013,10,02,00,27,0.00
2013,10,02,00,28,0.00
2013,10,02,00,29,0.00
2013,10,02,00,30,0.00
2013,10,02,00,31,0.00
2013,10,02,00,32,0.00
2013,10,02,00,33,0.00
2013,10,02,00,34,0.00
2013,10,02,00,35,0.00
2013,10,02,00,36,0.00
2013,10,02,00,37,0.00
2013,10,02,00,38,0.00
2013,10,02,00,39,0.00
2013,10,02,00,40,0.00
2013,10,02,00,41,0.00
2013,10,02,00,42,0.00
2013,10,02,00,43,0.00
2013,10,02,00,44,0.00
2013,10,02,00,45,0.00
2013,10,02,00,46,0.00
2013,10,02,00,47,0.00
2013,10,02,00,48,0.00
2013,10,02,00,49,0.00
2013,10,02,00,50,0.00
2013,10,02,00,51,0.00
2013,10,02,00,52,0.00
2013,10,02,00,53,0.00
2013,10,02,00,54,0.00
2013,10,02,00,55,0.00
2013,10,02,00,56,0.00
2013,10,02,00,57,0.00
2013,10,02,00,58,0.00
2013,10,02,00,59,0.00
2013,10,02,01,00,0.00
2013,10,02,01,01,0.00
2013,10,02,01,02,0.00
2013,10,02,01,03,0.00
2013,10,02,01,04,0.00
2013,10,02,01,05,0.00
2013,10,02,01,06,0.00
2013,10,02,01,07,0.00
2013,10,02,01,08,0.00
2013,10,02,01,09,0.00
2013,10,02,01,10,0.00
2013,10,02,01,11,0.00
2013,10,02,01,12,0.00
2013,10,02,01,13,0.00
2013,10,02,01,14,0.00
2013,10,02,01,15,0.00
2013,10,02,01,16,0.00
2013,10,02,01,17,0.00
2013,10,02,01,18,0.00
2013,10,02,01,19,0.00
2013,10,02,01,20,0.00
2013,10,02,01,21,0.00
2013,10,02,01,22,0.00
2013,10,02,01,23,0.00
2013,10,02,01,24,0.00
2013,10,02,01,25,0.00
2013,10,02,01,26,0.00
2013,10,02,01,27,0.00
2013,10,02,01,28,0.00
2013,10,02,01,29,0.00
2013,10,02,01,30,0.00
2013,10,02,01,31,0.00
2013,10,02,01,32,0.00
2013,10,02,01,33,0.00
2013,10,02,01,34,0.00
2013,10,02,01,35,0.00
2013,10,02,01,36,0.00
2013,10,02,01,37,0.00
2013,10,02,01,38,0.00
2013,10,02,01,39,0.00
2013,10,02,01,40,0.00
2013,10,02,01,41,0.00
2013,10,02,01,42,0.00
2013,10,02,01,43,0.00
2013,10,02,01,44,0.00
2013,10,02,01,45,0.00
2013,10,02,01,46,0.00
2013,10,02,01,47,0.00
2013,10,02,01,48,0.00
2013,10,02,01,49,0.00
2013,10,02,01,50,0.00
2013,10,02,01,51,0.00
2013,10,02,01,52,0.00
2013,10,02,01,53,0.00
2013,10,02,01,54,0.00
2013,10,02,01,55,0.00
2013,10,02,01,56,0.00
2013,10,02,01,57,0.00
2013,10,02,01,58,0.00
2013,10,02,01,59,0.00
2013,10,02,02,00,0.00
2013,10,02,02,01,0.00
2013,10,02,02,02,0.00
2013,10,02,02,03,0.00
2013,10,02,02,04,0.00
2013,10,02,02,05,0.00
2013,10,02,02,06,0.00
2013,10,02,02,07,0.00
2013,10,02,02,08,0.00
2013,10,02,02,09,0.00
2013,10,02,02,10,0.00
2013,10,02,02,11,0.00
2013,10,02,02,12,0.00
2013,10,02,02,13,0.00
2013,10,02,02,14,0.00
2013,10,02,02,15,0.00
2013,10,02,02,16,0.00
2013,10,02,02,17,0.00
2013,10,02,02,18,0.00
2013,10,02,02,19,0.00
2013,10,02,02,20,0.00
2013,10,02,02,21,0.00
2013,10,02,02,22,0.00
2013,10,02,02,23,0.00
2013,10,02,02,24,0.00
2013,10,02,02,25,0.00
2013,10,02,02,26,0.00
2013,10,02,02,27,0.00
2013,10,02,02,28,0.00
2013,10,02,02,29,0.00
2013,10,02,02,30,0.00
2013,10,02,02,31,0.00
2013,10,02,02,32,0.00
2013,10,02,02,33,0.00
2013,10,02,02,34,0.00
2013,10,02,02,35,0.00
2013,10,02,02,36,0.00
2013,10,02,02,37,0.00
2013,10,02,02,38,0.00
2013,10,02,02,39,0.00
2013,10,02,02,40,0.00
2013,10,02,02,41,0.00
2013,10,02,02,42,0.00
2013,10,02,02,43,0.00
2013,10,02,02,44,0.00
2013,10,02,02,45,0.00
2013,10,02,02,46,0.00
2013,10,02,02,47,0.00
2013,10,02,02,48,0.00
2013,10,02,02,49,0.00
2013,10,02,02,50,0.00
2013,10,02,02,51,0.00
2013,10,02,02,52,0.00
2013,10,02,02,53,0.00
2013,10,02,02,54,0.00
2013,10,02,02,55,0.00
2013,10,02,02,56,0.00
2013,10,02,02,57,0.00
2013,10,02,02,58,0.00
2013,10,02,02,59,0.00
2013,10,02,03,00,0.00
2013,10,02,03,01,0.00
2013,10,02,03,02,0.00
2013,10,02,03,03,0.00
2013,10,02,03,04,0.00
2013,10,02,03,05,0.00
2013,10,02,03,06,0.00
2013,10,02,03,07,0.00
2013,10,02,03,08,0.00
2013,10,02,03,09,0.00
2013,10,02,03,10,0.00
2013,10,02,03,11,0.00
2013,10,02,03,12,0.00
2013,10,02,03,13,0.00
2013,10,02,03,14,0.00
2013,10,02,03,15,0.00
2013,10,02,03,16,0.00
2013,10,02,03,17,0.00
2013,10,02,03,18,0.00
2013,10,02,03,19,0.00
2013,10,02,03,20,0.00
2013,10,02,03,21,0.00
2013,10,02,03,22,0.00
2013,10,02,03,23,0.00
2013,10,02,03,24,0.00
2013,10,02,03,25,0.00
2013,10,02,03,26,0.00
2013,10,02,03,27,0.00
2013,10,02,03,28,0.00
2013,10,02,03,29,0.00
2013,10,02,03,30,0.00
2013,10,02,03,31,0.00
2013,10,02,03,32,0.00
2013,10,02,03,33,0.00
2013,10,02,03,34,0.00
2013,10,02,03,35,0.00
2013,10,02,03,36,0.00
2013,10,02,03,37,0.00
2013,10,02,03,38,0.00
2013,10,02,03,39,0.00
2013,10,02,03,40,0.00
2013,10,02,03,41,0.00
2013,10,02,03,42,0.00
2013,10,02,03,43,0.00
2013,10,02,03,44,0.00
2013,10,02,03,45,0.00
2013,10,02,03,46,0.00
2013,10,02,03,47,0.00
2013,10,02,03,48,0.00
2013,10,02,03,49,0.00
2013,10,02,03,50,0.00
2013,10,02,03,51,0.00
2013,10,02,03,52,0.00
2013,10,02,03,53,0.00
2013,10,02,03,54,0.00
2013,10,02,03,55,0.00
2013,10,02,03,56,0.00
2013,10,02,03,57,0.00
2013,10,02,03,58,0.00
2013,10,02,03,59,0.00
2013,10,02,04,00,0.00
2013,10,02,04,01,0.00
2013,10,02,04,02,0.00
2013,10,02,04,03,0.00
2013,10,02,04,04,0.00
2013,10,02,04,05,0.00
2013,10,02,04,06,0.00
2013,10,02,04,07,0.00
2013,10,02,04,08,0.00
2013,10,02,04,09,0.00
2013,10,02,04,10,0.00
2013,10,02,04,11,0.00
2013,10,02,04,12,0.00
2013,10,02,04,13,0.00
2013,10,02,04,14,0.00
2013,10,02,04,15,0.00
2013,10,02,04,16,0.00
2013,10,02,04,17,0.00
2013,10,02,04,18,0.00
2013,10,02,04,19,0.00
2013,10,02,04,20,0.00
2013,10,02,04,21,0.00
2013,10,02,04,22,0.00
2013,10,02,04,23,0.00
2013,10,02,04,24,0.00
2013,10,02,04,25,0.00
2013,10,02,04,26,0.00
2013,10,02,04,27,0.00
2013,10,02,04,28,0.00
2013,10,02,04,29,0.00
2013,10,02,04,30,0.00
2013,10,02,04,31,0.00
2013,10,02,04,32,0.00
2013,10,02,04,33,0.00
2013,10,02,04,34,0.00
2013,10,02,04,35,0.00
2013,10,02,04,36,0.00
2013,10,02,04,37,0.00
2013,10,02,04,38,0.00
2013,10,02,04,39,0.00
2013,10,02,04,40,0.00
2013,10,02,04,41,0.00
2013,10,02,04,42,0.00
2013,10,02,04,43,0.00
2013,10,02,04,44,0.00
2013,10,02,04,45,0.00
2013,10,02,04,46,0.00
2013,10,02,04,47,0.00
2013,10,02,04,48,0.00
2013,10,02,04,49,0.00
2013,10,02,04,50,0.00
2013,10,02,04,51,0.00
2013,10,02,04,52,0.00
2013,10,02,04,53,0.00
2013,10,02,04,54,0.00
2013,10,02,04,55,0.00
2013,10,02,04,56,0.00
2013,10,02,04,57,0.00
2013,10,02,04,58,0.00
2013,10,02,04,59,0.00
2013,10,02,05,00,0.00
2013,10,02,05,01,0.00
2013,10,02,05,02,0.00
2013,10,02,05,03,0.00
2013,10,02,05,04,0.00
2013,10,02,05,05,0.00
2013,10,02,05,06,0.00
2013,10,02,05,07,0.00
2013,10,02,05,08,0.00
2013,10,02,05,09,0.00
2013,10,02,05,10,0.00
2013,10,02,05,11,0.00
2013,10,02,05,12,0.00
2013,10,02,05,13,0.00
2013,10,02,05,14,0.00
2013,10,02,05,15,0.00
2013,10,02,05,16,0.00
2013,10,02,05,17,0.00
2013,10,02,05,18,0.00
2013,10,02,05,19,0.00
2013,10,02,05,20,0.00
2013,10,02,05,21,0.00
2013,10,02,05,22,0.00
2013,10,02,05,23,0.00
2013,10,02,05,24,0.00
2013,10,02,05,25,0.00
2013,10,02,05,26,0.00
2013,10,02,05,27,0.00
2013,10,02,05,28,0.00
2013,10,02,05,29,0.00
2013,10,02,05,30,0.00
2013,10,02,05,31,0.00
2013,10,02,05,32,0.00
2013,10,02,05,33,0.00
2013,10,02,05,34,0.00
2013,10,02,05,35,0.00
2013,10,02,05,36,0.00
2013,10,02,05,37,0.00
2013,10,02,05,38,0.00
2013,10,02,05,39,0.00
2013,10,02,05,40,0.00
2013,10,02,05,41,0.00
2013,10,02,05,42,0.00
2013,10,02,05,43,0.00
2013,10,02,05,44,0.00
2013,10,02,05,45,0.00
2013,10,02,05,46,0.00
2013,10,02,05,47,0.00
2013,10,02,05,48,0.00
2013,10,02,05,49,0.00
2013,10,02,05,50,0.00
2013,10,02,05,51,0.00
2013,10,02,05,52,0.00
2013,10,02,05,53,0.00
2013,10,02,05,54,0.00
2013,10,02,05,55,0.00
2013,10,02,05,56,0.00
2013,10,02,05,57,0.00
2013,10,02,05,58,0.00
2013,10,02,05,59,0.00
2013,10,02,06,00,0.00
2013,10,02,06,01,0.00
2013,10,02,06,02,0.00
2013,10,02,06,03,0.00
2013,10,02,06,04,0.00
2013,10,02,06,05,0.00
2013,10,02,06,06,0.00
2013,10,02,06,07,0.00
2013,10,02,06,08,0.00
2013,10,02,06,09,0.00
2013,10,02,06,10,0.00
2013,10,02,06,11,0.00
2013,10,02,06,12,0.00
2013,10,02,06,13,0.00
2013,10,02,06,14,0.00
2013,10,02,06,15,0.00
2013,10,02,06,16,0.00
2013,10,02,06,17,0.00
2013,10,02,06,18,0.00
2013,10,02,06,19,0.00
2013,10,02,06,20,0.00
2013,10,02,06,21,0.00
2013,10,02,06,22,0.00
2013,10,02,06,23,0.00
2013,10,02,06,24,0.00
2013,10,02,06,25,0.00
2013,10,02,06,26,0.00
2013,10,02,06,27,0.00
2013,10,02,06,28,0.00
2013,10,02,06,29,0.00
2013,10,02,06,30,0.00
2013,10,02,06,31,0.00
2013,10,02,06,32,0.00
2013,10,02,06,33,0.00
2013,10,02,06,34,0.00
2013,10,02,06,35,0.00
2013,10,02,06,36,0.00
2013,10,02,06,37,0.00
2013,10,02,06,38,0.00
2013,10,02,06,39,0.00
2013,10,02,06,40,0.00
2013,10,02,06,41,0.00
2013,10,02,06,42,0.00
2013,10,02,06,43,0.00
2013,10,02,06,44,0.00
2013,10,02,06,45,0.00
2013,10,02,06,46,0.00
2013,10,02,06,47,0.00
2013,10,02,06,48,0.00
2013,10,02,06,49,0.00
2013,10,02,06,50,0.00
2013,10,02,06,51,0.00
2013,10,02,06,52,0.00
2013,10,02,06,53,0.00
2013,10,02,06,54,0.00
2013,10,02,06,55,0.00
2013,10,02,06,56,0.00
2013,10,02,06,57,0.00
2013,10,02,06,58,0.00
2013,10,02,06,59,0.00
2013,10,02,07,00,0.00
2013,10,02,07,01,0.00
2013,10,02,07,02,0.00
2013,10,02,07,03,0.00
2013,10,02,07,04,0.00
2013,10,02,07,05,0.00
2013,10,02,07,06,0.00
2013,10,02,07,07,0.00
2013,10,02,07,08,0.00
2013,10,02,07,09,0.00
2013,10,02,07,10,0.00
2013,10,02,07,11,0.00
2013,10,02,07,12,0.00
2013,10,02,07,13,0.00
2013,10,02,07,14,0.00
2013,10,02,07,15,0.00
2013,10,02,07,16,0.00
2013,10,02,07,17,0.00
2013,10,02,07,18,0.00
2013,10,02,07,19,0.00
2013,10,02,07,20,0.00
2013,10,02,07,21,0.00
2013,10,02,07,22,0.00
2013,10,02,07,23,0.00
2013,10,02,07,24,0.00
2013,10,02,07,25,0.00
2013,10,02,07,26,0.00
2013,10,02,07,27,0.00
2013,10,02,07,28,0.00
2013,10,02,07,29,0.00
2013,10,02,07,30,0.00
2013,10,02,07,31,0.00
2013,10,02,07,32,0.00
2013,10,02,07,33,0.00
2013,10,02,07,34,0.00
2013,10,02,07,35,0.00
2013,10,02,07,36,0.00
2013,10,02,07,37,0.00
2013,10,02,07,38,0.00
2013,10,02,07,39,0.50
2013,10,02,07,40,5.00
2013,10,02,07,41,5.00
2013,10,02,07,42,5.80
2013,10,02,07,43,7.00
2013,10,02,07,44,7.00
2013,10,02,07,45,7.00
2013,10,02,07,46,7.00
2013,10,02,07,47,7.00
2013,10,02,07,48,7.00
2013,10,02,07,49,7.00
2013,10,02,07,50,7.00
2013,10,02,07,51,6.10
2013,10,02,07,52,5.00
2013,10,02,07,53,5.00
2013,10,02,07,54,5.00
2013,10,02,07,55,0.80
2013,10,02,07,56,0.00
2013,10,02,07,57,0.00
2013,10,02,07,58,0.00
2013,10,02,07,59,0.00
2013,10,02,08,00,0.00
2013,10,02,08,01,0.00
2013,10,02,08,02,0.00
2013,10,02,08,03,0.00
2013,10,02,08,04,0.00
2013,10,02,08,05,5.00
2013,10,02,08,06,5.00
2013,10,02,08,07,5.00
2013,10,02,08,08,5.90
2013,10,02,08,09,7.00
2013,10,02,08,10,8.30
2013,10,02,08,11,10.50
2013,10,02,08,12,11.00
2013,10,02,08,13,12.10
2013,10,02,08,14,14.00
2013,10,02,08,15,14.60
2013,10,02,08,16,16.80
2013,10,02,08,17,18.00
2013,10,02,08,18,18.00
2013,10,02,08,19,18.00
2013,10,02,08,20,18.80
2013,10,02,08,21,19.00
2013,10,02,08,22,21.20
2013,10,02,08,23,23.40
2013,10,02,08,24,25.30
2013,10,02,08,25,26.80
2013,10,02,08,26,29.10
2013,10,02,08,27,31.20
2013,10,02,08,28,32.70
2013,10,02,08,29,34.70
2013,10,02,08,30,38.60
2013,10,02,08,31,40.30
2013,10,02,08,32,42.50
2013,10,02,08,33,45.10
2013,10,02,08,34,47.90
2013,10,02,08,35,50.10
2013,10,02,08,36,51.00
2013,10,02,08,37,52.50
2013,10,02,08,38,53.00
2013,10,02,08,39,54.00
2013,10,02,08,40,54.30
2013,10,02,08,41,56.60
2013,10,02,08,42,58.80
2013,10,02,08,43,60.00
2013,10,02,08,44,61.20
2013,10,02,08,45,64.10
2013,10,02,08,46,66.60
2013,10,02,08,47,68.80
2013,10,02,08,48,70.20
2013,10,02,08,49,72.50
2013,10,02,08,50,74.70
2013,10,02,08,51,76.40
2013,10,02,08,52,77.00
2013,10,02,08,53,78.30
2013,10,02,08,54,79.00
2013,10,02,08,55,79.00
2013,10,02,08,56,80.90
2013,10,02,08,57,81.00
2013,10,02,08,58,81.00
2013,10,02,08,59,80.30
2013,10,02,09,00,79.00
2013,10,02,09,01,79.00
2013,10,02,09,02,79.00
2013,10,02,09,03,79.00
2013,10,02,09,04,80.80
2013,10,02,09,05,81.20
2013,10,02,09,06,83.20
2013,10,02,09,07,84.70
2013,10,02,09,08,86.80
2013,10,02,09,09,88.00
2013,10,02,09,10,88.00
2013,10,02,09,11,88.00
2013,10,02,09,12,88.00
2013,10,02,09,13,86.20
2013,10,02,09,14,86.00
2013,10,02,09,15,86.50
2013,10,02,09,16,88.70
2013,10,02,09,17,90.40
2013,10,02,09,18,92.10
2013,10,02,09,19,93.00
2013,10,02,09,20,93.00
2013,10,02,09,21,93.00
2013,10,02,09,22,92.80
2013,10,02,09,23,91.00
2013,10,02,09,24,90.80
2013,10,02,09,25,90.00
2013,10,02,09,26,90.00
2013,10,02,09,27,88.80
2013,10,02,09,28,88.00
2013,10,02,09,29,88.00
2013,10,02,09,30,88.00
2013,10,02,09,31,88.20
2013,10,02,09,32,90.00
2013,10,02,09,33,90.30
2013,10,02,09,34,91.00
2013,10,02,09,35,92.10
2013,10,02,09,36,94.30
2013,10,02,09,37,95.00
2013,10,02,09,38,95.00
2013,10,02,09,39,94.90
2013,10,02,09,40,93.00
2013,10,02,09,41,92.20
2013,10,02,09,42,89.30
2013,10,02,09,43,86.00
2013,10,02,09,44,83.40
2013,10,02,09,45,81.70
2013,10,02,09,46,79.40
2013,10,02,09,47,77.20
2013,10,02,09,48,76.00
2013,10,02,09,49,76.00
2013,10,02,09,50,75.40
2013,10,02,09,51,74.80
2013,10,02,09,52,76.00
2013,10,02,09,53,76.00
2013,10,02,09,54,76.70
2013,10,02,09,55,77.00
2013,10,02,09,56,78.90
2013,10,02,09,57,81.30
2013,10,02,09,58,83.20
2013,10,02,09,59,84.70
2013,10,02,10,00,87.80
2013,10,02,10,01,90.50
2013,10,02,10,02,93.60
2013,10,02,10,03,98.80
2013,10,02,10,04,104.50
2013,10,02,10,05,114.40
2013,10,02,10,06,121.90
2013,10,02,10,07,128.50
2013,10,02,10,08,133.20
2013,10,02,10,09,138.00
2013,10,02,10,10,142.70
2013,10,02,10,11,147.50
2013,10,02,10,12,152.20
2013,10,02,10,13,155.70
2013,10,02,10,14,162.50
2013,10,02,10,15,168.80
2013,10,02,10,16,176.40
2013,10,02,10,17,184.80
2013,10,02,10,18,194.90
2013,10,02,10,19,206.20
2013,10,02,10,20,221.30
2013,10,02,10,21,237.80
2013,10,02,10,22,255.10
2013,10,02,10,23,273.60
2013,10,02,10,24,285.80
2013,10,02,10,25,296.00
2013,10,02,10,26,299.00
2013,10,02,10,27,296.80
2013,10,02,10,28,288.00
2013,10,02,10,29,274.60
2013,10,02,10,30,264.80
2013,10,02,10,31,256.10
2013,10,02,10,32,245.20
2013,10,02,10,33,228.90
2013,10,02,10,34,210.80
2013,10,02,10,35,190.50
2013,10,02,10,36,168.60
2013,10,02,10,37,150.20
2013,10,02,10,38,134.80
2013,10,02,10,39,121.20
2013,10,02,10,40,113.50
2013,10,02,10,41,108.00
2013,10,02,10,42,104.70
2013,10,02,10,43,104.00
2013,10,02,10,44,104.50
2013,10,02,10,45,107.60
2013,10,02,10,46,112.00
2013,10,02,10,47,115.50
2013,10,02,10,48,117.80
2013,10,02,10,49,116.40
2013,10,02,10,50,118.60
2013,10,02,10,51,121.80
2013,10,02,10,52,127.20
2013,10,02,10,53,134.20
2013,10,02,10,54,141.90
2013,10,02,10,55,149.50
2013,10,02,10,56,157.30
2013,10,02,10,57,165.70
2013,10,02,10,58,173.20
2013,10,02,10,59,179.60
2013,10,02,11,00,185.00
2013,10,02,11,01,189.10
2013,10,02,11,02,191.30
2013,10,02,11,03,192.00
2013,10,02,11,04,190.30
2013,10,02,11,05,186.10
2013,10,02,11,06,182.70
2013,10,02,11,07,180.20
2013,10,02,11,08,177.20
2013,10,02,11,09,174.00
2013,10,02,11,10,171.40
2013,10,02,11,11,171.00
2013,10,02,11,12,171.00
2013,10,02,11,13,171.90
2013,10,02,11,14,176.30
2013,10,02,11,15,182.00
2013,10,02,11,16,188.20
2013,10,02,11,17,195.40
2013,10,02,11,18,203.00
2013,10,02,11,19,213.30
2013,10,02,11,20,230.00
2013,10,02,11,21,245.20
2013,10,02,11,22,264.40
2013,10,02,11,23,288.80
2013,10,02,11,24,300.90
2013,10,02,11,25,310.80
2013,10,02,11,26,320.00
2013,10,02,11,27,328.90
2013,10,02,11,28,336.50
2013,10,02,11,29,342.20
2013,10,02,11,30,345.60
2013,10,02,11,31,346.00
2013,10,02,11,32,346.00
2013,10,02,11,33,345.70
2013,10,02,11,34,343.40
2013,10,02,11,35,339.60
2013,10,02,11,36,336.80
2013,10,02,11,37,337.40
2013,10,02,11,38,333.40
2013,10,02,11,39,323.90
2013,10,02,11,40,311.80
2013,10,02,11,41,300.40
2013,10,02,11,42,290.70
2013,10,02,11,43,279.00
2013,10,02,11,44,271.20
2013,10,02,11,45,269.00
2013,10,02,11,46,272.50
2013,10,02,11,47,283.40
2013,10,02,11,48,296.60
2013,10,02,11,49,302.40
2013,10,02,11,50,304.50
2013,10,02,11,51,305.30
2013,10,02,11,52,301.80
2013,10,02,11,53,293.90
2013,10,02,11,54,281.60
2013,10,02,11,55,267.70
2013,10,02,11,56,260.70
2013,10,02,11,57,257.30
2013,10,02,11,58,261.40
2013,10,02,11,59,270.90
2013,10,02,12,00,281.80
2013,10,02,12,01,294.00
2013,10,02,12,02,302.80
2013,10,02,12,03,310.30
2013,10,02,12,04,320.60
2013,10,02,12,05,347.90
2013,10,02,12,06,418.20
2013,10,02,12,07,403.80
2013,10,02,12,08,452.60
2013,10,02,12,09,419.80
2013,10,02,12,10,418.70
2013,10,02,12,11,404.00
2013,10,02,12,12,404.00
2013,10,02,12,13,378.30
2013,10,02,12,14,358.30
2013,10,02,12,15,351.40
2013,10,02,12,16,394.60
2013,10,02,12,17,424.70
2013,10,02,12,18,394.50
2013,10,02,12,19,416.40
2013,10,02,12,20,435.50
2013,10,02,12,21,422.20
2013,10,02,12,22,375.90
2013,10,02,12,23,382.80
2013,10,02,12,24,429.50
2013,10,02,12,25,404.00
2013,10,02,12,26,415.60
2013,10,02,12,27,393.60
2013,10,02,12,28,393.00
2013,10,02,12,29,429.20
2013,10,02,12,30,467.10
2013,10,02,12,31,471.70
2013,10,02,12,32,476.00
2013,10,02,12,33,430.20
2013,10,02,12,34,411.80
2013,10,02,12,35,424.50
2013,10,02,12,36,439.00
2013,10,02,12,37,537.80
2013,10,02,12,38,596.60
2013,10,02,12,39,648.10
2013,10,02,12,40,659.80
2013,10,02,12,41,634.00
2013,10,02,12,42,606.50
2013,10,02,12,43,591.00
2013,10,02,12,44,606.50
2013,10,02,12,45,580.00
2013,10,02,12,46,513.50
2013,10,02,12,47,416.10
2013,10,02,12,48,404.00
2013,10,02,12,49,241.90
2013,10,02,12,50,230.00
2013,10,02,12,51,232.10
2013,10,02,12,52,259.20
2013,10,02,12,53,295.50
2013,10,02,12,54,299.50
2013,10,02,12,55,297.00
2013,10,02,12,56,297.00
2013,10,02,12,57,255.40
2013,10,02,12,58,259.10
2013,10,02,12,59,242.40
2013,10,02,13,00,241.80
2013,10,02,13,01,255.30
2013,10,02,13,02,295.40
2013,10,02,13,03,316.40
2013,10,02,13,04,321.80
2013,10,02,13,05,316.70
2013,10,02,13,06,304.10
2013,10,02,13,07,317.80
2013,10,02,13,08,316.40
2013,10,02,13,09,300.00
2013,10,02,13,10,295.00
2013,10,02,13,11,294.40
2013,10,02,13,12,294.80
2013,10,02,13,13,288.20
2013,10,02,13,14,283.00
2013,10,02,13,15,277.00
2013,10,02,13,16,268.60
2013,10,02,13,17,258.10
2013,10,02,13,18,243.50
2013,10,02,13,19,229.40
2013,10,02,13,20,220.20
2013,10,02,13,21,215.00
2013,10,02,13,22,214.00
2013,10,02,13,23,211.00
2013,10,02,13,24,211.00
2013,10,02,13,25,210.40
2013,10,02,13,26,209.80
2013,10,02,13,27,209.90
2013,10,02,13,28,207.20
2013,10,02,13,29,203.20
2013,10,02,13,30,200.30
2013,10,02,13,31,199.10
2013,10,02,13,32,200.20
2013,10,02,13,33,203.20
2013,10,02,13,34,209.10
2013,10,02,13,35,215.20
2013,10,02,13,36,222.10
2013,10,02,13,37,228.00
2013,10,02,13,38,231.50
2013,10,02,13,39,230.20
2013,10,02,13,40,237.10
2013,10,02,13,41,208.40
2013,10,02,13,42,208.10
2013,10,02,13,43,226.90
2013,10,02,13,44,232.50
2013,10,02,13,45,197.20
2013,10,02,13,46,177.30
2013,10,02,13,47,168.70
2013,10,02,13,48,160.70
2013,10,02,13,49,150.30
2013,10,02,13,50,143.00
2013,10,02,13,51,137.50
2013,10,02,13,52,131.40
2013,10,02,13,53,125.20
2013,10,02,13,54,117.20
2013,10,02,13,55,109.10
2013,10,02,13,56,101.30
2013,10,02,13,57,95.00
2013,10,02,13,58,89.40
2013,10,02,13,59,85.20
2013,10,02,14,00,81.40
2013,10,02,14,01,76.60
2013,10,02,14,02,71.60
2013,10,02,14,03,67.90
2013,10,02,14,04,65.50
2013,10,02,14,05,65.00
2013,10,02,14,06,63.10
2013,10,02,14,07,63.00
2013,10,02,14,08,62.70
2013,10,02,14,09,61.20
2013,10,02,14,10,58.90
2013,10,02,14,11,56.80
2013,10,02,14,12,54.60
2013,10,02,14,13,53.20
2013,10,02,14,14,52.90
2013,10,02,14,15,50.70
2013,10,02,14,16,48.60
2013,10,02,14,17,46.00
2013,10,02,14,18,42.20
2013,10,02,14,19,39.50
2013,10,02,14,20,36.40
2013,10,02,14,21,35.00
2013,10,02,14,22,33.30
2013,10,02,14,23,33.00
2013,10,02,14,24,33.00
2013,10,02,14,25,33.00
2013,10,02,14,26,33.80
2013,10,02,14,27,35.00
2013,10,02,14,28,37.50
2013,10,02,14,29,41.10
2013,10,02,14,30,45.20
2013,10,02,14,31,50.80
2013,10,02,14,32,56.60
2013,10,02,14,33,62.70
2013,10,02,14,34,66.60
2013,10,02,14,35,71.60
2013,10,02,14,36,76.60
2013,10,02,14,37,82.20
2013,10,02,14,38,87.00
2013,10,02,14,39,90.60
2013,10,02,14,40,96.90
2013,10,02,14,41,103.00
2013,10,02,14,42,108.80
2013,10,02,14,43,114.10
2013,10,02,14,44,117.90
2013,10,02,14,45,120.00
2013,10,02,14,46,120.00
2013,10,02,14,47,120.80
2013,10,02,14,48,124.60
2013,10,02,14,49,127.20
2013,10,02,14,50,130.80
2013,10,02,14,51,134.90
2013,10,02,14,52,137.80
2013,10,02,14,53,141.60
2013,10,02,14,54,146.40
2013,10,02,14,55,146.60
2013,10,02,14,56,146.00
2013,10,02,14,57,142.20
2013,10,02,14,58,136.20
2013,10,02,14,59,132.50
2013,10,02,15,00,134.90
2013,10,02,15,01,137.00
2013,10,02,15,02,135.90
2013,10,02,15,03,131.80
2013,10,02,15,04,123.20
2013,10,02,15,05,114.20
2013,10,02,15,06,101.50
2013,10,02,15,07,96.10
2013,10,02,15,08,89.50
2013,10,02,15,09,85.30
2013,10,02,15,10,83.50
2013,10,02,15,11,83.00
2013,10,02,15,12,83.00
2013,10,02,15,13,83.80
2013,10,02,15,14,85.90
2013,10,02,15,15,91.60
2013,10,02,15,16,98.70
2013,10,02,15,17,105.60
2013,10,02,15,18,111.80
2013,10,02,15,19,118.20
2013,10,02,15,20,123.20
2013,10,02,15,21,130.20
2013,10,02,15,22,138.00
2013,10,02,15,23,149.50
2013,10,02,15,24,159.90
2013,10,02,15,25,174.80
2013,10,02,15,26,193.70
2013,10,02,15,27,222.30
2013,10,02,15,28,260.20
2013,10,02,15,29,276.00
2013,10,02,15,30,349.50
2013,10,02,15,31,358.80
2013,10,02,15,32,342.80
2013,10,02,15,33,363.40
2013,10,02,15,34,419.20
2013,10,02,15,35,450.00
2013,10,02,15,36,485.30
2013,10,02,15,37,517.00
2013,10,02,15,38,481.60
2013,10,02,15,39,469.00
2013,10,02,15,40,627.40
2013,10,02,15,41,640.00
2013,10,02,15,42,640.00
2013,10,02,15,43,638.60
2013,10,02,15,44,632.40
2013,10,02,15,45,628.00
2013,10,02,15,46,640.30
2013,10,02,15,47,647.00
2013,10,02,15,48,647.00
2013,10,02,15,49,647.00
2013,10,02,15,50,585.50
2013,10,02,15,51,236.20
2013,10,02,15,52,234.00
2013,10,02,15,53,235.00
2013,10,02,15,54,236.60
2013,10,02,15,55,238.40
2013,10,02,15,56,239.00
2013,10,02,15,57,246.90
2013,10,02,15,58,245.20
2013,10,02,15,59,252.80
2013,10,02,16,00,242.20
2013,10,02,16,01,231.20
2013,10,02,16,02,223.80
2013,10,02,16,03,222.20
2013,10,02,16,04,228.00
2013,10,02,16,05,231.70
2013,10,02,16,06,237.10
2013,10,02,16,07,240.90
2013,10,02,16,08,222.20
2013,10,02,16,09,229.80
2013,10,02,16,10,221.90
2013,10,02,16,11,179.10
2013,10,02,16,12,157.30
2013,10,02,16,13,143.50
2013,10,02,16,14,137.60
2013,10,02,16,15,138.90
2013,10,02,16,16,139.00
2013,10,02,16,17,139.90
2013,10,02,16,18,146.10
2013,10,02,16,19,153.80
2013,10,02,16,20,158.50
2013,10,02,16,21,164.90
2013,10,02,16,22,157.40
2013,10,02,16,23,143.30
2013,10,02,16,24,126.10
2013,10,02,16,25,118.60
2013,10,02,16,26,104.80
2013,10,02,16,27,92.90
2013,10,02,16,28,88.80
2013,10,02,16,29,89.90
2013,10,02,16,30,94.00
2013,10,02,16,31,96.70
2013,10,02,16,32,96.80
2013,10,02,16,33,94.70
2013,10,02,16,34,93.00
2013,10,02,16,35,92.20
2013,10,02,16,36,89.50
2013,10,02,16,37,86.80
2013,10,02,16,38,84.60
2013,10,02,16,39,85.60
2013,10,02,16,40,89.60
2013,10,02,16,41,93.00
2013,10,02,16,42,92.60
2013,10,02,16,43,89.90
2013,10,02,16,44,87.20
2013,10,02,16,45,85.00
2013,10,02,16,46,82.10
2013,10,02,16,47,79.50
2013,10,02,16,48,79.00
2013,10,02,16,49,78.90
2013,10,02,16,50,76.50
2013,10,02,16,51,73.50
2013,10,02,16,52,70.90
2013,10,02,16,53,69.40
2013,10,02,16,54,70.00
2013,10,02,16,55,69.30
2013,10,02,16,56,69.00
2013,10,02,16,57,67.20
2013,10,02,16,58,67.00
2013,10,02,16,59,67.00
2013,10,02,17,00,66.40
2013,10,02,17,01,64.20
2013,10,02,17,02,62.50
2013,10,02,17,03,60.70
2013,10,02,17,04,60.00
2013,10,02,17,05,61.60
2013,10,02,17,06,65.20
2013,10,02,17,07,75.10
2013,10,02,17,08,82.20
2013,10,02,17,09,85.30
2013,10,02,17,10,81.80
2013,10,02,17,11,75.30
2013,10,02,17,12,66.20
2013,10,02,17,13,56.20
2013,10,02,17,14,48.00
2013,10,02,17,15,41.80
2013,10,02,17,16,38.70
2013,10,02,17,17,36.40
2013,10,02,17,18,35.00
2013,10,02,17,19,34.10
2013,10,02,17,20,33.00
2013,10,02,17,21,32.30
2013,10,02,17,22,32.00
2013,10,02,17,23,32.00
2013,10,02,17,24,29.80
2013,10,02,17,25,27.30
2013,10,02,17,26,24.40